Satellite-Ground Cal/Val Site Overpasses Predictions

Prediction of Satellite NPP Overpassing Cal/Val Site: Antarctic Dome C

Ground Cal/Val Site Location: Latitude: -75.10, Longitude: 123.35; Satellite-Ground Site NADIR distance within 100 km.

Table of predicted overpasses for the next 14.0 days since TLE Epoch: 3/6/2020
Interval Starting Time Ending Time Minimum Distance Time Minimum Distance (km)
1 03/07/2020 07:31:04 03/07/2020 07:31:34 03/07/2020 07:31:19 1.08
2 03/10/2020 14:54:32 03/10/2020 14:55:00 03/10/2020 14:54:46 20.99
3 03/11/2020 14:35:50 03/11/2020 14:36:05 03/11/2020 14:35:58 85.95
4 03/12/2020 07:37:22 03/12/2020 07:37:50 03/12/2020 07:37:36 35.76
5 03/13/2020 07:18:37 03/13/2020 07:18:57 03/13/2020 07:18:47 74.24
6 03/15/2020 15:00:52 03/15/2020 15:01:16 03/15/2020 15:01:04 58.23
7 03/16/2020 14:42:02 03/16/2020 14:42:27 03/16/2020 14:42:14 50.96
8 03/17/2020 07:43:44 03/17/2020 07:44:04 03/17/2020 07:43:54 71.14


NCC Satellite Cal/Val Overpasses Prediction Service
